Погода в Белене

Бразилия     1°27′06″S   48°28′53″W
темп.,
°C
ветер,
м/с
пор.,
м/с
влажн.,
%
обл.,
%
осадки,
мм/ч
давл.,
гПа
погр.,
м
27 февраля, сб
сб2700:00+24св1495100 0.3 1011147
03:00+23всв1394100 0.3 1009114
06:00+23в1396100 0.4 1009124
09:00+25св269498 2.7 1011323
12:00+31св246031 0.6 10111357
15:00+28ссв248850 4.4 1007733
18:00+25св249427 3.9 1007160
21:00+24св279649 7.1 1010265
28 февраля, вс
вс2800:00+24всв1596100 0.2 1010210
03:00+23в1497100 0.7 1008160
06:00+23в139896 0.1 1008111
09:00+26вюв249386 1.2 1010353
12:00+29в247923 2.4 1009851
15:00+29ссв247612 4.2 10061144
18:00+25св25946 2.9 1006158
21:00+24св259538 3.8 1008163
1 марта, пн
пн100:00+24всв2896100 0.3 1008315
03:00+23в1697100 0.6 1006288
06:00+23вюв1498100 0.1 1007219
09:00+27в268275 0.4 1009662
12:00+29ссв24741 0.8 10081061
15:00+28ссв24818 3.3 1005833
18:00+25св259487 6.0 1006175
21:00+24св289593 11.7 1008281
2 марта, вт
вт200:00+24св2595100 0.1 1009180
03:00+23в1397100 2.0 1007127
06:00+23ююв1299100 0.3 1008111
09:00+25вюв1391100 0.3 1010233
12:00+29св147661 1.1 1010930
15:00+28св138637 4.7 1007783
18:00+25св259492 3.7 1008193
21:00+24всв289696 5.2 1010278
3 марта, ср
ср300:00+24всв279798 0.4 1012327
03:00+23в139877 0.4 1010133
06:00+22в139881 0.0 1010136
09:00+26в278459 0.0 1013730
12:00+28всв268212 1.4 1012975
15:00+28всв259010 6.6 1009769
18:00+25всв279487 3.3 1009352
21:00+24всв289685 3.9 1012288